IRIDIUM 169

Last updated on Tue Sep 22 2026 00:03:21 GMT+0000 (Coordinated Universal Time)

1 43926U 19002E 26264.51743237 .00000166 00000+0 47599-4 0 9998 2 43926 86.4278 344.9432 0002216 84.8245 275.3207 14.38607426404074
UTC large
Height (km)
Speed (km/s)
/
Latitude / Longitude
Inclination (degrees)
Orbital Period (minutes)
Azimuth
Elevation
Range (km)
Doppler Factor

Next 0 passes for location: London (51.5072 / 0.1276)

No passes found over London.
IRIDIUM 169